Weather History for Lafayette, LA

Change the Weather History Date:

Wednesday, November 6, 2013

  Actual Average Record
Temperature  
Mean Temperature 74 °F 64 °F  
Max Temperature 82 °F 75 °F 86 °F (1956)
Min Temperature 65 °F 54 °F 32 °F (1954)
Degree Days  
Heating Degree Days 0 4  
Month to date heating degree days 15 19  
Since 1 July heating degree days 26 55  
Cooling Degree Days 8    
Growing Degree Days 23 (Base 50)    
Moisture  
Dew Point 66 °F    
Average Humidity 76    
Maximum Humidity 93    
Minimum Humidity 58    
Precipitation  
Precipitation T in 0.15 in 1.63 in (1943)
Month to date precipitation T 0.95  
Year to date precipitation 52.28 51.52  
Snow  
Snow 0.00 in 0.00 in 0.00 in ()
Month to date snowfall 0.0 0.0  
Since 1 July snowfall 0.0 0.0  
Since 1 September snowfall 0.0 0.0  
Snow Depth 0.00 in    
Sea Level Pressure  
Sea Level Pressure 30.09 in    
Wind  
Wind Speed 6 mph (WSW)    
Max Wind Speed 15 mph    
Max Gust Speed 20 mph    
Visibility 10 miles    
Events      
T = Trace of Precipitation, MM = Missing Value Source: NWS Daily Summary

Daily Weather History Graph

Daily Weather History Graph

Search for Another Location

Airport:

Trip Planner

Search our weather history database for the weather conditions in past years. The results will help you decide how hot, cold, wet, or windy it might be!

Date:

Astronomy

Nov. 06, 2013 Rise Set
Actual Time 6:26 AM CST 5:16 PM CST
Civil Twilight 6:01 AM CST 5:41 PM CST
Nautical Twilight 5:32 AM CST 6:10 PM CST
Astronomical Twilight 5:04 AM CST 6:38 PM CST
Moon 9:35 AM CST (11/6) 8:26 PM CST (11/6)
Length of Visible Light 11h 40m
Length of Day
10h 50m
Waxing Crescent, 14% of the Moon is Illuminated
Nov 6
Waxing Crescent
Nov 9
First Quarter
Nov 17
Full
Nov 25
Last Quarter
Dec 2
New

Hourly Weather History & Observations

Time (CST) Temp. Heat Index Dew Point Humidity Pressure Visibility Wind Dir Wind Speed Gust Speed Precip Events Conditions
12:14 AM 66.2 °F - 64.4 °F 94% 30.09 in 10.0 mi ESE 5.8 mph - N/A   Overcast
12:53 AM 66.9 °F - 64.0 °F 90% 30.08 in 10.0 mi ESE 3.5 mph - N/A   Overcast
1:53 AM 68.0 °F - 64.0 °F 87% 30.07 in 10.0 mi Variable 3.5 mph - N/A   Overcast
2:53 AM 68.0 °F - 64.0 °F 87% 30.06 in 10.0 mi ESE 4.6 mph - N/A   Overcast
3:53 AM 66.9 °F - 64.0 °F 90% 30.07 in 10.0 mi ESE 3.5 mph - N/A   Mostly Cloudy
4:13 AM 66.2 °F - 64.4 °F 94% 30.07 in 10.0 mi Variable 3.5 mph - N/A   Mostly Cloudy
4:53 AM 66.0 °F - 63.0 °F 90% 30.07 in 10.0 mi Calm Calm - N/A   Mostly Cloudy
5:53 AM 64.9 °F - 63.0 °F 93% 30.07 in 9.0 mi Calm Calm - N/A   Partly Cloudy
6:18 AM 64.4 °F - 62.6 °F 94% 30.08 in 8.0 mi Calm Calm - N/A   Mostly Cloudy
6:53 AM 64.9 °F - 63.0 °F 93% 30.08 in 8.0 mi Calm Calm - N/A   Overcast
7:53 AM 69.1 °F - 64.0 °F 84% 30.09 in 10.0 mi SE 4.6 mph - N/A   Overcast
8:12 AM 69.8 °F - 64.4 °F 83% 30.09 in 10.0 mi ESE 6.9 mph - N/A   Mostly Cloudy
8:53 AM 73.0 °F - 66.0 °F 79% 30.10 in 10.0 mi Variable 3.5 mph - N/A   Mostly Cloudy
9:53 AM 75.0 °F - 66.9 °F 76% 30.11 in 10.0 mi South 8.1 mph - N/A   Partly Cloudy
10:36 AM 77.0 °F - 66.2 °F 69% 30.11 in 10.0 mi SSE 6.9 mph - N/A   Mostly Cloudy
10:53 AM 78.1 °F - 68.0 °F 71% 30.10 in 10.0 mi South 9.2 mph - N/A   Mostly Cloudy
11:40 AM 78.8 °F - 68.0 °F 69% 30.08 in 10.0 mi South 6.9 mph - N/A   Overcast
11:53 AM 80.1 °F 82.7 °F 68.0 °F 67% 30.07 in 10.0 mi Variable 4.6 mph - N/A   Mostly Cloudy
12:53 PM 81.0 °F 83.0 °F 66.0 °F 60% 30.05 in 10.0 mi SSW 6.9 mph - N/A   Mostly Cloudy
1:53 PM 82.0 °F 84.5 °F 66.9 °F 60% 30.04 in 10.0 mi South 6.9 mph - N/A   Overcast
2:53 PM 81.0 °F 83.8 °F 68.0 °F 65% 30.04 in 10.0 mi SSW 6.9 mph - N/A   Mostly Cloudy
3:46 PM 75.2 °F - 68.0 °F 78% 30.04 in 10.0 mi West 13.8 mph 18.4 mph N/A   Overcast
3:53 PM 75.0 °F - 68.0 °F 79% 30.04 in 10.0 mi West 11.5 mph - N/A   Overcast
4:40 PM 73.4 °F - 68.0 °F 83% 30.05 in 10.0 mi SW 4.6 mph - N/A   Overcast
4:53 PM 73.9 °F - 68.0 °F 82% 30.05 in 10.0 mi SW 4.6 mph - N/A   Overcast
5:53 PM 73.0 °F - 69.1 °F 87% 30.07 in 10.0 mi WNW 5.8 mph - 0.00 in   Overcast
6:53 PM 72.0 °F - 69.1 °F 91% 30.09 in 10.0 mi NW 3.5 mph - 0.00 in   Overcast
7:53 PM 71.1 °F - 68.0 °F 90% 30.10 in 10.0 mi WNW 4.6 mph - N/A   Scattered Clouds
8:11 PM 71.6 °F - 68.0 °F 88% 30.10 in 10.0 mi NNW 6.9 mph - N/A   Mostly Cloudy
8:21 PM 71.6 °F - 68.0 °F 88% 30.10 in 10.0 mi NNW 10.4 mph - N/A   Mostly Cloudy
8:53 PM 71.1 °F - 66.0 °F 84% 30.11 in 10.0 mi North 11.5 mph - N/A   Scattered Clouds
9:53 PM 70.0 °F - 64.9 °F 84% 30.13 in 10.0 mi North 9.2 mph - N/A   Partly Cloudy
10:11 PM 69.8 °F - 64.4 °F 83% 30.13 in 10.0 mi North 9.2 mph - N/A   Mostly Cloudy
10:53 PM 69.1 °F - 64.0 °F 84% 30.14 in 10.0 mi North 13.8 mph - N/A   Overcast
11:08 PM 69.8 °F - 64.4 °F 83% 30.14 in 10.0 mi North 12.7 mph - N/A   Overcast
11:41 PM 69.8 °F - 64.4 °F 83% 30.14 in 10.0 mi North 12.7 mph - N/A   Overcast
11:53 PM 68.0 °F - 64.0 °F 87% 30.14 in 10.0 mi North 10.4 mph 19.6 mph N/A   Overcast